{"data":{"norad_id":43479,"intl_designator":"2018-047D","name":"IRIDIUM 152","alt_names":[],"object_type":"PAYLOAD","status":"ACTIVE","operator":null,"country":"US","launch_date":"2018-05-22","launch_site_code":"AFWTR","launch_vehicle":null,"mission":null,"orbit_class":"UNKNOWN","rcs_meters":null,"size_class":null,"mass_kg":null,"dimensions":null,"purposes":["comms"],"wikipedia_slug":null,"has_3d_model":false,"image_url":null,"decayed_at":null,"tle_current":{"epoch":"2026-09-19T18:39:54.243360Z","epoch_age_seconds":77960,"freshness":"FRESH","line1":"1 43479U 18047D   26262.77771115  .00000143  00000+0  43851-4 0  9993","line2":"2 43479  86.3945  48.7477 0002180  92.3894 267.7551 14.34218428436044","mean_motion":14.34218428,"eccentricity":0.000218,"inclination_deg":86.3945,"raan_deg":48.7477,"arg_perigee_deg":92.3894,"mean_anomaly_deg":267.7551,"bstar":4.3851e-5,"rev_number":43604,"period_min":100.40311656071,"perigee_km":776.10493435736,"apogee_km":779.2248639854,"semimajor_km":7155.8018991714,"source":"CELESTRAK","updated_at":"2026-09-20T09:00:36.330856Z"}}}